Regional Weather Roundup
Issued by NWS

Home | Current Version | Previous Version | Graphics & Text | Print | Product List | Glossary On
Versions: 1 2 3 4 5 6 7 8 9 10 11 12 13 14 15 16 17 18 19 20 21 22 23 24 25 26 27 28 29 30 31 32 33 34 35 36 37 38 39 40 41 42 43 44 45 46 47 48 49 50
000
ASUS43 KLOT 020006
RWRIL

ILLINOIS REGIONAL WEATHER ROUNDUP
NATIONAL WEATHER SERVICE CHICAGO/ROMEOVILLE IL
600 PM CST SUN MAR 01 2015

NOTE: "FAIR" INDICATES FEW OR NO CLOUDS BELOW 12,000 FEET WITH NO
SIGNIFICANT WEATHER AND/OR OBSTRUCTIONS TO VISIBILITY.

* THESE STATIONS ARE NOT UNDER NWS QUALITY CONTROL. THEY ALSO MAY NOT
  REPORT WEATHER SUCH AS PRECIPITATION OR FOG.

ILZ001-002-007-009-015-016-024-020100-
NORTHWEST ILLINOIS

CITY           SKY/WX    TMP DP  RH WIND       PRES   REMARKS
MOLINE         CLEAR     25  15  66 W12       30.33R WCI  14
6HR MIN TEMP:  25; 6HR MAX TEMP:  28;

STERLING*      CLEAR     21  16  79 W13       30.31R WCI   9
SAVANNA*       MOCLDY    26  17  71 W8        30.31R WCI  17
$$

ILZ003-004-008-010-011-017-018-020100-
NORTH CENTRAL ILLINOIS

CITY           SKY/WX    TMP DP  RH WIND       PRES   REMARKS
ROCKFORD       PTCLDY    23  15  71 W9        30.28S WCI  13
6HR MIN TEMP:  23; 6HR MAX TEMP:  25;

FREEPORT*      MOCLDY    23  17  77 W8        30.28S WCI  14
ROCHELLE*      PTCLDY    17  13  86 SW10      30.30R WCI   4
DE KALB*       CLEAR     19  14  80 W9        30.27S WCI   8
PERU*          CLEAR     20  13  76 W9        30.32S WCI   9
$$

ILZ005-006-012>014-019>023-020100-
NORTHEAST ILLINOIS

CITY           SKY/WX    TMP DP  RH WIND       PRES   REMARKS
CHICAGO-OHARE  PTCLDY    21  14  74 W12       30.26S WCI   9
6HR MIN TEMP:  21; 6HR MAX TEMP:  25;

CHICAGO-MIDWAY MOCLDY    25  16  68 W14       30.28S WCI  13
6HR MIN TEMP:  24; 6HR MAX TEMP:  27; 6HR PCP: TRACE;

AURORA         CLEAR     20  13  74 SW10      30.29S WCI   9
6HR MIN TEMP:  20; 6HR MAX TEMP:  24;

LANSING*       PTCLDY    22  15  76 W10       30.29R WCI  11
JOLIET*        PTCLDY    20  14  78 W6        30.31R WCI  13
WAUKEGAN       CLEAR     22  14  71 SW7       30.24R WCI  13
6HR MIN TEMP:  22; 6HR MAX TEMP:  26;

DUPAGE AIRPORT CLEAR     21  13  71 W12       30.27S WCI   9
6HR MIN TEMP:  21; 6HR MAX TEMP:  24; 6HR PCP: TRACE;

KANKAKEE*      PTCLDY    19  15  86 W7        30.32R WCI   9
WHEELING       CLEAR     23  14  68 W10       30.28S WCI  12
6HR MIN TEMP:  22; 6HR MAX TEMP:  27;

MORRIS*        CLEAR     18  14  82 W9        30.31R WCI   7
ROMEOVILLE*    CLEAR     19  14  79 W12       30.29S WCI   7
NORTHERLY ISL    N/A     24  16  71 W7          N/A  WCI  16
$$

LMZ740>746-020100-
SOUTHERN LAKE MICHIGAN

STATION/POSITION SKY/WX   TEMP    WIND        PRES    VSBY  WAVE
                          AIR SEA DIR/SP/G                  HT/PER
                          (F)     (DEG/KT/KT) (MB)    (MI)  (FT/S)
WAUKEGAN HARBOR            24     240/ 13/ 21   N/A
HARRISON CRIB              24     260/ 16/ 21   N/A
BURNHAM HARBOR             24     240/  6/ 11   N/A
CALUMET HARBOR                    220/  8/ 15   N/A
MICHIGAN CITY              24     210/  7/  8   N/A
$$

ILZ025>027-034>036-040-047-049-050-058-095>099-020100-
WEST-CENTRAL ILLINOIS

CITY           SKY/WX    TMP DP  RH WIND       PRES   REMARKS
QUINCY         MOCLDY    24  17  74 NW6       30.37S WCI  17
GALESBURG*     CLEAR     19  15  84 W7        30.34S WCI  10
MACOMB*        PTCLDY    18  15  86 W6        30.38R WCI  10
JACKSONVILLE*  MOCLDY    27  20  75 W6        30.37S WCI  21
PITTSFIELD*    MOCLDY    29  21  71 NW6       30.38S WCI  23
$$

ILZ028>032-037-038-041>044-048-051>054-059>061-020100-
CENTRAL ILLINOIS

CITY           SKY/WX    TMP DP  RH WIND       PRES   REMARKS
PONTIAC        PTCLDY    20  16  84 W12       30.34R WCI   8
BLOOMINGTON    MOCLDY    24  19  81 W12       30.34R WCI  13
DECATUR        MOCLDY    24  19  81 W5        30.35R WCI  18
PEORIA         PTCLDY    25  15  66 W5        30.35R WCI  19
6HR MIN TEMP:  25; 6HR MAX TEMP:  29;

LACON*         CLEAR     22  15  72 W6        30.34S WCI  15
LINCOLN*       CLOUDY    27  21  77 W5        30.37S WCI  22
SPRINGFIELD    CLOUDY    26  20  77 SW5       30.37R WCI  20
6HR MIN TEMP:  24; 6HR MAX TEMP:  30;

TAYLORVILLE    MOCLDY    25  19  80 W8        30.36F WCI  16
$$

ILZ033-039-045-046-055>057-062-063-020100-
EAST-CENTRAL ILLINOIS

CITY           SKY/WX    TMP DP  RH WIND       PRES   REMARKS
CHAMPAIGN      PTCLDY    18  15  88 W5        30.34R WCI  11
DANVILLE*      MOCLDY    21  19  93 NW7       30.30R WCI  13
RANTOUL*       CLOUDY    24  20  86 W3        30.33S
MATTOON        CLOUDY    25  21  85 NW8       30.34R WCI  16
PARIS*         PTCLDY    23  21  94 W6        30.36R WCI  15
$$

ILZ079-100>102-020100-
SOUTHWEST ILLINOIS

CITY           SKY/WX    TMP DP  RH WIND       PRES   REMARKS
BELLEVILLE     CLOUDY    30  27  87 NW5       30.37R WCI  25
CAHOKIA*       CLOUDY    31  25  78 NW8       30.38R WCI  23
SPARTA*        CLOUDY    30  26  85 NW5       30.38R WCI  26
$$

ILZ064>066-069>071-074>076-080>082-084>086-088>090-092>094-020100-
SOUTH-CENTRAL ILLINOIS

CITY           SKY/WX    TMP DP  RH WIND       PRES   REMARKS
CARBONDALE     CLOUDY    32  28  85 NW6       30.37R WCI  26
6HR MIN TEMP:  32; 6HR MAX TEMP:  35;

CAIRO*         CLOUDY    38  32  79 N3        30.36R
EFFINGHAM*     MOCLDY    29  22  75 NW9       30.36F WCI  20
MARION         CLOUDY    34  30  86 NW9       30.37R WCI  26
MT. VERNON     CLOUDY    30  25  80 W3        30.37R
CENTRALIA*     CLOUDY    30  25  82 NW3       30.36R
SALEM*         MOCLDY    31  26  83 N6        30.36S WCI  25
METROPOLIS*    CLOUDY    37  33  84 NW3       30.34R
$$

ILZ067-068-072-073-078-083-087-091-020100-
SOUTHEAST ILLINOIS

CITY           SKY/WX    TMP DP  RH WIND       PRES   REMARKS
LAWRENCEVILLE  CLOUDY    32  29  88 NW9       30.35R FOG     WCI  24
FLORA*         CLOUDY    30  27  86 NW7       30.36R WCI  23
FAIRFIELD*     CLOUDY    32  29  88 W5        30.35R WCI  27
HARRISBURG*    CLOUDY    33  31  92 NW5       30.37R WCI  29
ROBINSON*      CLOUDY    31  28  89 N8        30.36R WCI  23
CARMI*         CLOUDY    34  33  96 NW7       30.36R WCI  28
$$

ABBREVIATIONS USED IN REMARKS
   TC - TEMPERATURE IN CELSIUS
  WCI - WIND CHILL INDEX
   HX - HEAT INDEX
  VSB - VISIBILITY
$$




USA.gov is the U.S. government's official web portal to all federal, state and local government web resources and services.